Tracking 20712 objects as of 29-May-2020
HD Live streaming from Space Station
objects crossing your sky now

IRIDIUM 33 DEB

Track IRIDIUM 33 DEB now!
10-day predictions


NORAD ID: 34690
Int'l Code: 1997-051KM
Perigee: 752.4 km
Apogee: 760.3 km
Inclination: 86.4 °
Period: 99.8 minutes
Semi major axis: 7127 km
RCS: 0.0122 m2 (small)
Launch date: September 14, 1997
Source: United States (US)
Launch site: TYURATAM MISSILE AND SPACE COMPLEX (TTMTR)

Note: This is SATELLITE DEBRIS
aabbcc
Your satellite tracking list
Your tracking list is empty




NASA's NSSDC Master Catalog

Two Line Element Set (TLE):
1 34690U 97051KM  20150.14032755  .00000299  00000-0  83562-4 0  9997
2 34690  86.3883 183.2380 0005536 279.7771 142.0070 14.42828528588575
Source of the keplerian elements: AFSPC